User: anonymous   Login
Location: Mentone
(34.5413°N, 85.5351°W)
Time: 06:05:08
(UTC-05:00)
Language:

Cosmos 2026 Rocket - Orbit

View from above orbital plane
View from above orbital plane
View from above satellite
View from above satellite

Ground track
Ground track

The orbit data is extracted from the following two-line orbital elements,

1 20046U 89042B   17149.92502603 +.00000105 +00000-0 +87701-4 0  9997
2 20046 082.9359 316.8039 0043327 119.0219 241.5291 13.78099114406537
Epoch (UTC): 29 May 2017 22:12:02
Eccentricity: 0.0043327
inclination: 82.9359°
perigee height: 939 km
apogee height: 1002 km
right ascension of ascending node: 316.8039°
argument of perigee: 119.0219°
revolutions per day: 13.78099114
mean anomaly at epoch: 241.5291°
orbit number at epoch: 40653

The dashed part of the orbit path shows where the satellite is in the earth's shadow,  

DLR